Fuji Maru — JD2030 — position and weather

sailwx.info

Track history (hours):
 
Tides and Currents Weather Stations Pressure Air Temp Water Temp Dewpoint Dewpoint Depression Visibility Wind Speed Wind Dir Waves Ship Positions

Fuji Maru

Last reported at 2014-Oct-30 09:27 UTC. Time now 2014-Oct-31 04:58 UTC.
Position N 35°38' E 139°46'.

Length 38 m; draft 4.4 m.

Type: Tug. MMSI: 431001102.

Date/timePositionNaut miles runAvg speedWind from/ knotsBaromVisibWave heightAir tempDewpointWater temp
2014-Oct-30 09:27N 35°38' E 139°46'1 1.3
2014-Oct-30 08:34N 35°37' E 139°47'2 0.2
2014-Oct-30 00:07N 35°39' E 139°46'2 4.0
2014-Oct-29 23:33N 35°37' E 139°47'2 2.2
2014-Oct-29 22:33N 35°34' E 139°48'5 3.4
2014-Oct-29 21:10N 35°39' E 139°46'0 0.0
2014-Oct-29 20:16N 35°39' E 139°46'0 0.0
2014-Oct-29 10:22N 35°38' E 139°46'3 3.0
2014-Oct-29 09:26N 35°36' E 139°47'2 0.0
2014-Oct-27 14:33N 35°38' E 139°46'1 0.7
2014-Oct-27 13:23N 35°37' E 139°46'1 1.1
2014-Oct-27 12:31N 35°38' E 139°46'5 5.2
2014-Oct-27 11:33N 35°34' E 139°50'3 1.3
2014-Oct-27 09:17N 35°36' E 139°47'1 1.7
2014-Oct-27 08:31N 35°37' E 139°46'1 0.1
2014-Oct-26 23:31N 35°36' E 139°47'2 2.0
2014-Oct-26 22:30N 35°37' E 139°49'1 1.1
2014-Oct-26 21:33N 35°37' E 139°48'3 0.1
2014-Oct-25 03:13N 35°39' E 139°46'0 0.5
2014-Oct-25 02:33N 35°38' E 139°46'2 1.7
2014-Oct-25 01:07N 35°36' E 139°47'1 1.3
2014-Oct-25 00:30N 35°37' E 139°46'2 0.1
2014-Oct-24 11:05N 35°38' E 139°46'5 3.5
2014-Oct-24 09:33N 35°34' E 139°49'3 1.3
2014-Oct-24 07:33N 35°36' E 139°47'1 0.8
2014-Oct-24 06:33N 35°36' E 139°46'1 0.1
2014-Oct-23 22:32N 35°37' E 139°46'4 3.9
2014-Oct-23 21:33N 35°34' E 139°49'5 4.7
2014-Oct-23 20:31N 35°38' E 139°46'1 0.1
2014-Oct-23 05:17N 35°37' E 139°47'2 0.1
2014-Oct-22 11:11N 35°38' E 139°46'2 2.0
2014-Oct-22 10:12N 35°37' E 139°47'0 0.1
2014-Oct-22 09:18N 35°37' E 139°47'1 1.2
2014-Oct-22 08:30N 35°36' E 139°47'1 0.0
2014-Oct-21 10:04N 35°36' E 139°47'2 3.2
2014-Oct-21 09:31N 35°35' E 139°48'0 0.4
2014-Oct-21 08:33N 35°35' E 139°48'3 2.6
2014-Oct-21 07:31N 35°37' E 139°46'4 0.4
2014-Oct-20 21:33N 35°34' E 139°49'3 2.7
2014-Oct-20 20:32N 35°36' E 139°46'  
Track history (hours):
 
Tides and Currents Weather Stations Pressure Air Temp Water Temp Dewpoint Dewpoint Depression Visibility Wind Speed Wind Dir Waves Ship Positions

Fuji Maru

Last reported at 2014-Oct-30 09:27 UTC. Time now 2014-Oct-31 04:58 UTC.
Position N 35°38' E 139°46'.

Length 38 m; draft 4.4 m.

Type: Tug. MMSI: 431001102.

Date/timePositionNaut miles runAvg speedWind from/ knotsBaromVisibWave heightAir tempDewpointWater temp
2014-Oct-30 09:27N 35°38' E 139°46'1 1.3
2014-Oct-30 08:34N 35°37' E 139°47'2 0.2
2014-Oct-30 00:07N 35°39' E 139°46'2 4.0
2014-Oct-29 23:33N 35°37' E 139°47'2 2.2
2014-Oct-29 22:33N 35°34' E 139°48'5 3.4
2014-Oct-29 21:10N 35°39' E 139°46'0 0.0
2014-Oct-29 20:16N 35°39' E 139°46'0 0.0
2014-Oct-29 10:22N 35°38' E 139°46'3 3.0
2014-Oct-29 09:26N 35°36' E 139°47'2 0.0
2014-Oct-27 14:33N 35°38' E 139°46'1 0.7
2014-Oct-27 13:23N 35°37' E 139°46'1 1.1
2014-Oct-27 12:31N 35°38' E 139°46'5 5.2
2014-Oct-27 11:33N 35°34' E 139°50'3 1.3
2014-Oct-27 09:17N 35°36' E 139°47'1 1.7
2014-Oct-27 08:31N 35°37' E 139°46'1 0.1
2014-Oct-26 23:31N 35°36' E 139°47'2 2.0
2014-Oct-26 22:30N 35°37' E 139°49'1 1.1
2014-Oct-26 21:33N 35°37' E 139°48'3 0.1
2014-Oct-25 03:13N 35°39' E 139°46'0 0.5
2014-Oct-25 02:33N 35°38' E 139°46'2 1.7
2014-Oct-25 01:07N 35°36' E 139°47'1 1.3
2014-Oct-25 00:30N 35°37' E 139°46'2 0.1
2014-Oct-24 11:05N 35°38' E 139°46'5 3.5
2014-Oct-24 09:33N 35°34' E 139°49'3 1.3
2014-Oct-24 07:33N 35°36' E 139°47'1 0.8
2014-Oct-24 06:33N 35°36' E 139°46'1 0.1
2014-Oct-23 22:32N 35°37' E 139°46'4 3.9
2014-Oct-23 21:33N 35°34' E 139°49'5 4.7
2014-Oct-23 20:31N 35°38' E 139°46'1 0.1
2014-Oct-23 05:17N 35°37' E 139°47'2 0.1
2014-Oct-22 11:11N 35°38' E 139°46'2 2.0
2014-Oct-22 10:12N 35°37' E 139°47'0 0.1
2014-Oct-22 09:18N 35°37' E 139°47'1 1.2
2014-Oct-22 08:30N 35°36' E 139°47'1 0.0
2014-Oct-21 10:04N 35°36' E 139°47'2 3.2
2014-Oct-21 09:31N 35°35' E 139°48'0 0.4
2014-Oct-21 08:33N 35°35' E 139°48'3 2.6
2014-Oct-21 07:31N 35°37' E 139°46'4 0.4
2014-Oct-20 21:33N 35°34' E 139°49'3 2.7
2014-Oct-20 20:32N 35°36' E 139°46'  

Dump ship's entire track history